Weather in Kazakh

Azerbaijan     41°05′20″N   45°20′48″E
temp.,
°C
wind,
m/s
gust,
m/s
humid.,
%
clouds,
%
prec.,
mm/h
press.,
hPa
HPBL,
m
23 october, sat
sat2301:00+9sw22680 0.0 102310
04:00+8sw22660 0.0 102212
07:00+8sw32580 0.0 102217
10:00+13nne11460 0.0 1021244
13:00+15ne31470 0.0 1020531
16:00+16ne21440 0.0 1018513
19:00+12ssw22590 0.0 101911
22:00+11ssw33550 0.0 102019
24 october, sun
sun2401:00+10sw33520 0.0 101917
04:00+9sw33520 0.0 101926
07:00+9sw33520 0.0 101828
10:00+14nne11430 0.0 1018258
13:00+16ne31422 0.0 1017571
16:00+16ene22385 0.0 1016615
19:00+12ssw22465 0.0 101615
22:00+11sw33435 0.0 101718
25 october, mon
mon2501:00+10sw33425 0.0 101620
04:00+9sw33455 0.0 101618
07:00+7sw22495 0.0 101713
10:00+12n2145100 0.0 1017351
13:00+13nne3347100 0.0 1018728
16:00+10ene3264100 0.0 1019492
19:00+7ne127774 0.0 1022127
22:00+6ese117728 0.0 102442
26 october, tue
tue2601:00+5sw118029 0.0 102511
04:00+4se117730 0.0 102664
07:00+3wsw11795 0.0 102710
10:00+7ne21624 0.0 1028597
13:00+9ene325222 0.0 10271126
16:00+9ne3248100 0.0 10261078
19:00+6s11584 0.0 102810
22:00+4ssw01725 0.0 103011
27 october, wed
wed2701:00+3wnw018728 0.0 103215
04:00+3nw018677 0.0 1032111
07:00+3e019172 0.0 1032105
10:00+5ne218058 0.0 1032412
13:00+7ene326698 0.1 10301069
16:00+7ene226682 0.1 1029835
19:00+6e116897 0.0 1029174
22:00+6ese117456 0.0 102950